Location: Lourdes
(43.1000°N, 0.0500°W)
Time: 02:00:06
(UTC+00:00)

Cosmos 773 Rocket - Pass Details

Date: 15 April 2021
Orbit: 745 x 777 km, 74.1° (Epoch: 10 May)

Event Time Altitude Azimuth Distance (km) Brightness Sun altitude
Rises 00:12:57 0° 354° (N) 3,253 8.2 -37.0°
Reaches altitude 10° 00:16:35 10° 20° (NNE) 2,327 7.2 -37.0°
Maximum altitude 00:19:18 14° 51° (NE) 2,060 6.6 -36.9°
Enters shadow 00:20:12 13° 62° (ENE) 2,092 6.5 -36.9°
